NR0A-4 Weather Reports


Display with metric or nautical units.
time (UTC)temp
F
wind
direction
speed
MPH
gust
MPH
rain 1hr
in
rain 24hr
in
rain mn
in
humidity
%
barometer
mb
20180225194636 36 238 3.0 6.0 0.00 0.03 0.03 50 1013.8
20180225194134 36 245 2.0 6.0 0.01 0.03 0.03 50 1013.8
20180225193634 36 233 6.0 9.0 0.01 0.03 0.03 50 1013.8
20180225193134 36 241 6.0 7.0 0.01 0.03 0.03 50 1013.9
20180225192635 36 238 6.0 8.0 0.01 0.03 0.03 50 1013.9
20180225192134 36 260 1.0 2.0 0.01 0.03 0.03 52 1013.9
20180225191634 36 234 6.0 9.0 0.01 0.03 0.03 51 1014.0
20180225191135 36 250 2.0 6.0 0.01 0.03 0.03 52 1014.0
20180225190634 36 243 3.0 8.0 0.01 0.03 0.03 52 1014.0
20180225190134 35 250 6.0 9.0 0.01 0.03 0.03 50 1013.9
20180225185634 36 224 5.0 9.0 0.02 0.03 0.03 49 1013.9
20180225185134 35 260 3.0 7.0 0.02 0.03 0.03 50 1013.8
20180225184634 35 246 5.0 9.0 0.02 0.03 0.03 50 1014.0
20180225184133 35 252 5.0 8.0 0.01 0.02 0.02 50 1014.0
20180225183633 35 255 5.0 8.0 0.01 0.02 0.02 50 1014.0
20180225183136 34 219 1.0 5.0 0.01 0.02 0.02 53 1013.9
20180225182635 34 250 5.0 10.0 0.01 0.02 0.02 51 1014.0
20180225182135 34 243 6.0 8.0 0.01 0.02 0.02 50 1014.1
20180225181635 34 268 5.0 5.0 0.01 0.02 0.02 50 1014.2
20180225181135 35 252 2.0 9.0 0.02 0.02 0.02 50 1014.0
20180225180634 35 254 3.0 6.0 0.02 0.02 0.02 50 1014.0
20180225180134 35 274 0.0 3.0 0.02 0.02 0.02 51 1014.0
20180225175634 35 246 1.0 1.0 0.01 0.01 0.01 51 1014.1
20180225175134 34 226 0.0 2.0 0.01 0.01 0.01 52 1014.1
20180225174634 34 276 2.0 2.0 0.01 0.01 0.01 51 1014.1
20180225174134 33 259 2.0 5.0 0.01 0.01 0.01 54 1014.1
20180225173634 32 247 2.0 8.0 0.01 0.01 0.01 54 1014.1
20180225173134 32 257 7.0 10.0 0.01 0.01 0.01 54 1014.2
20180225172635 31 242 6.0 9.0 0.01 0.01 0.01 55 1014.2
20180225172134 31 251 5.0 8.0 0.01 0.01 0.01 54 1014.1
20180225171633 31 250 6.0 8.0 0.01 0.01 0.01 54 1014.2
20180225171133 31 258 5.0 9.0 0.00 0.00 0.00 55 1014.1
20180225170633 31 246 5.0 8.0 0.00 0.00 0.00 56 1014.1
20180225170133 30 250 6.0 8.0 0.00 0.00 0.00 56 1014.0
20180225165633 30 251 5.0 7.0 0.00 0.00 0.00 56 1013.9
20180225165133 30 239 5.0 8.0 0.00 0.00 0.00 56 1013.8
20180225164633 30 251 6.0 9.0 0.00 0.00 0.00 56 1013.7
20180225164137 29 250 7.0 9.0 0.00 0.00 0.00 57 1013.7
20180225163637 29 246 5.0 9.0 0.00 0.00 0.00 58 1013.6
20180225163514 29 246 6.0 10.0 0.00 0.00 0.00 58 1013.6
20180225163137 28 251 5.0 5.0 0.00 0.00 0.00 58 1013.6
20180225162637 28 255 5.0 7.0 0.00 0.00 0.00 59 1013.5
20180225162137 27 250 7.0 9.0 0.00 0.00 0.00 60 1013.5
20180225161637 27 254 6.0 9.0 0.00 0.00 0.00 60 1013.4
20180225161136 26 246 6.0 9.0 0.00 0.00 0.00 61 1013.4
20180225160635 26 244 7.0 10.0 0.00 0.00 0.00 61 1013.4
20180225160134 26 248 6.0 9.0 0.00 0.00 0.00 61 1013.4
20180225155635 26 244 7.0 9.0 0.00 0.00 0.00 61 1013.3
20180225155134 25 244 7.0 13.0 0.00 0.00 0.00 62 1013.1
20180225154634 25 251 6.0 9.0 0.00 0.00 0.00 62 1013.1
20180225154135 25 254 6.0 9.0 0.00 0.00 0.00 62 1013.1
20180225153634 24 245 7.0 12.0 0.00 0.00 0.00 62 1013.0
20180225153133 24 245 7.0 9.0 0.00 0.00 0.00 63 1013.0
20180225152637 24 251 6.0 8.0 0.00 0.00 0.00 63 1012.9
20180225152137 24 247 6.0 9.0 0.00 0.00 0.00 63 1012.9
20180225151636 23 247 6.0 10.0 0.00 0.00 0.00 64 1012.8
20180225151136 23 248 5.0 6.0 0.00 0.00 0.00 64 1012.9
20180225150636 23 242 5.0 8.0 0.00 0.00 0.00 65 1012.8
20180225150136 22 252 5.0 8.0 0.00 0.00 0.00 65 1012.7
20180225145636 22 252 6.0 9.0 0.00 0.00 0.00 65 1012.7
20180225145136 22 249 6.0 8.0 0.00 0.00 0.00 66 1012.6
20180225144636 21 246 5.0 10.0 0.00 0.00 0.00 66 1012.6
20180225144136 21 245 5.0 9.0 0.00 0.00 0.00 67 1012.6
20180225143636 21 254 6.0 8.0 0.00 0.00 0.00 67 1012.6
20180225143136 21 249 5.0 8.0 0.00 0.00 0.00 68 1012.5
20180225142636 20 252 6.0 9.0 0.00 0.00 0.00 67 1012.5
20180225142136 20 250 5.0 7.0 0.00 0.00 0.00 68 1012.5
20180225141636 20 255 5.0 8.0 0.00 0.00 0.00 68 1012.4
20180225141136 20 246 7.0 12.0 0.00 0.00 0.00 69 1012.4
20180225140636 20 248 7.0 9.0 0.00 0.00 0.00 69 1012.3
20180225140136 19 254 6.0 9.0 0.00 0.00 0.00 70 1012.3
20180225135636 18 247 6.0 7.0 0.00 0.00 0.00 72 1012.2
20180225135136 18 351 2.0 3.0 0.00 0.00 0.00 72 1012.3
20180225134636 18 247 0.0 0.0 0.00 0.00 0.00 72 1012.1
20180225134136 17 243 5.0 6.0 0.00 0.00 0.00 73 1011.8
20180225133635 17 248 3.0 7.0 0.00 0.00 0.00 73 1011.7
20180225133135 17 249 5.0 6.0 0.00 0.00 0.00 73 1011.5
20180225132635 17 248 5.0 6.0 0.00 0.00 0.00 74 1011.5
20180225132135 16 248 5.0 7.0 0.00 0.00 0.00 74 1011.2
20180225131635 16 248 2.0 7.0 0.00 0.00 0.00 74 1011.2
20180225131135 16 248 5.0 7.0 0.00 0.00 0.00 74 1011.1
20180225130635 16 253 3.0 3.0 0.00 0.00 0.00 74 1011.0
20180225130135 16 252 5.0 9.0 0.00 0.00 0.00 74 1010.9
20180225125635 16 248 3.0 5.0 0.00 0.00 0.00 74 1010.9
20180225125135 16 243 3.0 7.0 0.00 0.00 0.00 74 1010.7
20180225124635 17 247 3.0 6.0 0.00 0.00 0.00 74 1010.7
20180225124135 17 251 3.0 6.0 0.00 0.00 0.00 74 1010.5
20180225123635 17 243 5.0 6.0 0.00 0.00 0.00 74 1010.5
20180225123135 17 248 5.0 8.0 0.00 0.00 0.00 74 1010.4
20180225122635 17 247 5.0 9.0 0.00 0.00 0.00 74 1010.3
20180225122135 17 248 5.0 7.0 0.00 0.00 0.00 74 1010.3
20180225121634 17 246 5.0 7.0 0.00 0.00 0.00 74 1010.3
20180225121134 17 252 5.0 6.0 0.00 0.00 0.00 74 1010.3
20180225120634 17 254 5.0 6.0 0.00 0.00 0.00 74 1010.2
20180225120134 17 254 5.0 6.0 0.00 0.00 0.00 74 1010.1
20180225115634 17 249 5.0 6.0 0.00 0.00 0.00 74 1010.0
20180225115134 17 248 5.0 5.0 0.00 0.00 0.00 74 1010.0
20180225114634 17 249 3.0 7.0 0.00 0.00 0.00 74 1010.0
20180225114133 17 246 3.0 7.0 0.00 0.00 0.00 74 1010.0
20180225113633 17 251 3.0 7.0 0.00 0.00 0.00 75 1010.0
20180225113137 17 252 3.0 7.0 0.00 0.00 0.00 74 1010.0
20180225112637 17 250 3.0 7.0 0.00 0.00 0.00 74 1010.0
20180225112135 18 250 3.0 6.0 0.00 0.00 0.00 75 1009.9
20180225111635 17 245 6.0 7.0 0.00 0.00 0.00 76 1010.0
20180225111136 17 252 1.0 3.0 0.00 0.00 0.00 76 1009.9
20180225110635 17 253 3.0 8.0 0.00 0.00 0.00 76 1009.9
20180225110135 17 251 3.0 6.0 0.00 0.00 0.00 77 1009.9
20180225105635 17 272 1.0 2.0 0.00 0.00 0.00 77 1009.8
20180225105135 17 245 5.0 8.0 0.00 0.00 0.00 77 1009.7
20180225104635 17 247 5.0 8.0 0.00 0.00 0.00 77 1009.8
20180225104135 17 251 5.0 8.0 0.00 0.00 0.00 77 1009.7
20180225103635 17 250 3.0 6.0 0.00 0.00 0.00 77 1009.7
20180225103135 16 253 5.0 7.0 0.00 0.00 0.00 78 1009.7
20180225102634 16 252 3.0 7.0 0.00 0.00 0.00 78 1009.5
20180225102134 16 247 3.0 5.0 0.00 0.00 0.00 77 1009.5
20180225101633 16 252 5.0 7.0 0.00 0.00 0.00 78 1009.4
20180225101133 16 254 5.0 7.0 0.00 0.00 0.00 78 1009.5
20180225100633 16 256 5.0 6.0 0.00 0.00 0.00 77 1009.5
20180225100133 16 249 5.0 7.0 0.00 0.00 0.00 77 1009.5
20180225095633 16 253 5.0 7.0 0.00 0.00 0.00 77 1009.7
20180225095133 16 247 6.0 8.0 0.00 0.00 0.00 77 1009.7
20180225094633 16 246 5.0 6.0 0.00 0.00 0.00 77 1009.8
20180225094133 16 257 5.0 6.0 0.00 0.00 0.00 77 1009.8
20180225093637 17 253 7.0 10.0 0.00 0.00 0.00 77 1009.7
20180225093137 16 239 8.0 12.0 0.00 0.00 0.00 77 1009.5
20180225092637 16 248 5.0 8.0 0.00 0.00 0.00 78 1009.7
20180225092137 16 247 5.0 6.0 0.00 0.00 0.00 77 1009.8
20180225091637 16 245 3.0 6.0 0.00 0.00 0.00 77 1009.8
20180225091137 16 255 3.0 6.0 0.00 0.00 0.00 77 1009.7
20180225090637 17 251 3.0 6.0 0.00 0.00 0.00 77 1009.5
20180225090136 17 248 5.0 7.0 0.00 0.00 0.00 77 1009.3
20180225085636 17 252 2.0 5.0 0.00 0.00 0.00 77 1009.3
20180225085135 17 253 3.0 6.0 0.00 0.00 0.00 77 1009.4
20180225084635 17 254 3.0 6.0 0.00 0.00 0.00 77 1009.5
20180225084135 17 244 5.0 7.0 0.00 0.00 0.00 78 1009.7
20180225083635 17 251 3.0 6.0 0.00 0.00 0.00 78 1009.8
20180225083135 17 245 3.0 5.0 0.00 0.00 0.00 78 1009.9
20180225082635 17 249 3.0 6.0 0.00 0.00 0.00 78 1009.8
20180225082136 17 264 1.0 2.0 0.00 0.00 0.00 78 1009.7
20180225081635 17 250 1.0 5.0 0.00 0.00 0.00 77 1009.7
20180225081135 17 262 3.0 5.0 0.00 0.00 0.00 77 1009.9
20180225080635 17 246 5.0 7.0 0.00 0.00 0.00 77 1009.9
20180225080135 17 247 3.0 9.0 0.00 0.00 0.00 77 1009.9
20180225075635 17 251 2.0 6.0 0.00 0.00 0.00 77 1009.9
20180225075134 17 246 3.0 6.0 0.00 0.00 0.00 77 1010.0
20180225074634 17 254 5.0 9.0 0.00 0.00 0.00 77 1009.8
20180225074134 17 246 5.0 9.0 0.00 0.00 0.00 76 1009.7
20180225073634 18 248 5.0 8.0 0.00 0.00 0.00 76 1009.7
20180225073134 18 247 5.0 7.0 0.00 0.00 0.00 76 1009.8
20180225072637 18 246 3.0 7.0 0.00 0.00 0.00 76 1009.9
20180225072134 18 241 5.0 6.0 0.00 0.00 0.00 76 1009.8
20180225071634 18 244 3.0 7.0 0.00 0.00 0.00 76 1009.5
20180225071134 18 249 3.0 6.0 0.00 0.00 0.00 75 1009.5
20180225070634 18 250 5.0 8.0 0.00 0.00 0.00 75 1009.5
20180225070134 18 248 6.0 8.0 0.00 0.00 0.00 75 1009.5
20180225065634 19 247 7.0 10.0 0.00 0.00 0.00 74 1009.5
20180225065134 19 248 7.0 9.0 0.00 0.00 0.00 74 1009.5
20180225064634 19 238 5.0 8.0 0.00 0.00 0.00 73 1009.4
20180225064134 19 249 3.0 9.0 0.00 0.00 0.00 73 1009.4
20180225063634 20 245 6.0 9.0 0.00 0.00 0.00 72 1009.5
20180225063134 20 246 6.0 8.0 0.00 0.00 0.00 71 1009.4
20180225062634 20 246 6.0 8.0 0.00 0.00 0.00 70 1009.3
20180225062134 21 246 6.0 10.0 0.00 0.00 0.00 70 1009.2
20180225061634 21 248 6.0 9.0 0.00 0.00 0.00 70 1009.0
20180225061134 21 257 5.0 8.0 0.00 0.00 0.00 70 1008.8
20180225060634 21 253 5.0 7.0 0.00 0.00 0.00 69 1008.9
20180225060134 22 258 3.0 6.0 0.00 0.00 0.00 69 1008.9
20180225055634 22 259 2.0 3.0 0.00 0.00 0.00 69 1008.9
20180225055138 21 256 2.0 9.0 0.00 0.00 0.00 70 1008.8
20180225054638 21 261 3.0 8.0 0.00 0.00 0.00 70 1008.7
20180225054138 21 250 2.0 7.0 0.00 0.00 0.00 71 1008.7
20180225053639 21 276 2.0 15.0 0.00 0.00 0.00 72 1008.7
20180225053138 21 259 3.0 6.0 0.00 0.00 0.00 73 1008.8
20180225052637 20 261 5.0 7.0 0.00 0.00 0.00 74 1008.8
20180225052137 20 252 5.0 7.0 0.00 0.00 0.00 75 1008.9
20180225051636 20 248 6.0 8.0 0.00 0.00 0.00 76 1008.8
20180225051135 20 253 3.0 8.0 0.00 0.00 0.00 77 1008.7
20180225050635 20 245 5.0 9.0 0.00 0.00 0.00 78 1008.5
20180225050135 20 248 7.0 9.0 0.00 0.00 0.00 79 1008.5
20180225045635 20 247 5.0 6.0 0.00 0.00 0.00 79 1008.4
20180225045135 20 245 7.0 9.0 0.00 0.00 0.00 80 1008.5
20180225044635 20 246 3.0 6.0 0.00 0.00 0.00 80 1008.4
20180225044135 20 245 3.0 5.0 0.00 0.00 0.00 80 1008.3
20180225043635 20 245 5.0 7.0 0.00 0.00 0.00 80 1008.3
20180225043135 20 242 5.0 7.0 0.00 0.00 0.00 80 1008.2
20180225042635 20 250 3.0 5.0 0.00 0.00 0.00 80 1008.3
20180225042134 20 258 3.0 8.0 0.00 0.00 0.00 80 1008.3
20180225041634 21 257 2.0 8.0 0.00 0.00 0.00 80 1008.3
20180225041134 21 261 2.0 13.0 0.00 0.00 0.00 81 1008.1
20180225040634 21 258 2.0 5.0 0.00 0.00 0.00 81 1008.0
20180225040133 21 274 2.0 7.0 0.00 0.00 0.00 82 1007.7
20180225035633 21 262 3.0 9.0 0.00 0.00 0.00 82 1007.9
20180225035137 21 270 1.0 8.0 0.00 0.00 0.00 83 1007.9
20180225034637 21 249 3.0 6.0 0.00 0.00 0.00 84 1007.6
20180225034137 21 260 1.0 3.0 0.00 0.00 0.00 84 1007.6
20180225033637 21 259 1.0 3.0 0.00 0.00 0.00 84 1007.6
20180225033137 22 297 2.0 5.0 0.00 0.00 0.00 84 1007.6
20180225032637 22 291 2.0 8.0 0.00 0.00 0.00 85 1007.6
20180225032137 22 279 3.0 6.0 0.00 0.00 0.00 85 1007.5
20180225031636 22 270 3.0 17.0 0.00 0.00 0.00 86 1007.5
20180225031136 22 279 5.0 7.0 0.00 0.00 0.00 86 1007.3
20180225030635 22 267 2.0 7.0 0.00 0.00 0.00 86 1007.4
20180225030135 22 282 2.0 9.0 0.00 0.00 0.00 86 1007.2
20180225025635 22 275 2.0 3.0 0.00 0.00 0.00 86 1007.1
20180225025135 23 280 2.0 5.0 0.00 0.00 0.00 86 1007.0
20180225024635 23 234 1.0 1.0 0.00 0.00 0.00 86 1006.9
20180225024135 23 295 2.0 3.0 0.00 0.00 0.00 86 1006.6
20180225023635 23 279 3.0 7.0 0.00 0.00 0.00 86 1006.7
20180225023135 24 266 2.0 3.0 0.00 0.00 0.00 85 1006.6
20180225022635 24 296 2.0 3.0 0.00 0.00 0.00 85 1006.5
20180225022135 24 299 3.0 3.0 0.00 0.00 0.00 85 1006.5
20180225021635 25 299 3.0 6.0 0.00 0.00 0.00 85 1006.4
20180225021135 25 294 3.0 8.0 0.00 0.00 0.00 85 1006.3
20180225020635 25 276 2.0 8.0 0.00 0.00 0.00 85 1006.4
20180225020135 26 308 3.0 5.0 0.00 0.00 0.00 85 1006.2
20180225015634 26 279 3.0 3.0 0.00 0.00 0.00 86 1006.1
20180225015133 26 271 3.0 6.0 0.00 0.00 0.00 87 1005.9
20180225014634 26 287 3.0 6.0 0.00 0.00 0.00 88 1005.8
20180225014134 25 295 5.0 6.0 0.00 0.00 0.00 90 1005.7
20180225013633 24 292 5.0 5.0 0.00 0.00 0.00 91 1005.5
20180225013133 24 261 1.0 3.0 0.00 0.00 0.00 91 1005.5
20180225012633 24 243 3.0 7.0 0.00 0.00 0.00 91 1005.3
20180225012137 24 249 3.0 6.0 0.00 0.00 0.00 91 1005.4
20180225011637 24 244 3.0 6.0 0.00 0.00 0.00 91 1005.2
20180225011137 24 247 2.0 5.0 0.00 0.00 0.00 91 1005.2
20180225010637 23 246 2.0 5.0 0.00 0.00 0.00 91 1005.1
20180225010137 23 245 2.0 3.0 0.00 0.00 0.00 91 1005.0
20180225005637 23 247 2.0 3.0 0.00 0.00 0.00 91 1004.9
20180225005137 23 242 2.0 3.0 0.00 0.00 0.00 90 1004.9
20180225004636 23 240 3.0 5.0 0.00 0.00 0.00 90 1004.9
20180225004136 23 251 3.0 5.0 0.00 0.00 0.00 90 1004.9
20180225003636 23 224 2.0 3.0 0.00 0.00 0.00 90 1004.8
20180225003136 24 228 2.0 3.0 0.00 0.00 0.00 90 1004.6
20180225002636 24 234 3.0 6.0 0.00 0.00 0.00 89 1004.7
20180225002136 24 235 2.0 5.0 0.00 0.00 0.00 89 1004.6
20180225001636 24 229 2.0 5.0 0.00 0.00 0.00 89 1004.6
20180225001136 24 231 2.0 2.0 0.00 0.00 0.00 89 1004.5
20180225000637 24 216 3.0 6.0 0.00 0.00 0.00 89 1004.5
20180225000136 24 237 2.0 2.0 0.00 0.00 0.00 89 1004.5
20180224235636 24 225 3.0 6.0 0.00 0.00 0.00 89 1004.5
20180224235136 24 223 2.0 3.0 0.00 0.00 0.00 89 1004.3
20180224234636 24 232 5.0 7.0 0.00 0.00 0.00 89 1004.3
20180224234135 24 223 5.0 6.0 0.00 0.00 0.00 89 1004.3
20180224233635 24 218 5.0 7.0 0.00 0.00 0.00 89 1004.3
20180224233135 25 229 5.0 6.0 0.00 0.00 0.00 88 1004.3
20180224232635 24 213 5.0 5.0 0.00 0.00 0.00 88 1004.4
20180224232135 24 211 3.0 5.0 0.00 0.00 0.00 89 1004.4
20180224231638 24 225 7.0 9.0 0.00 0.00 0.00 88 1004.4
20180224231134 25 216 6.0 7.0 0.00 0.00 0.00 88 1004.4
20180224230634 25 218 5.0 5.0 0.00 0.00 0.00 88 1004.3
20180224230134 25 217 5.0 7.0 0.00 0.00 0.00 87 1004.4
20180224225634 25 224 5.0 8.0 0.00 0.00 0.00 87 1004.3
20180224225134 25 223 3.0 5.0 0.00 0.00 0.00 87 1004.4
20180224224634 25 219 3.0 5.0 0.00 0.00 0.00 87 1004.5
20180224224134 25 233 5.0 6.0 0.00 0.00 0.00 87 1004.4
20180224223634 25 242 6.0 7.0 0.00 0.00 0.00 87 1004.5
20180224223134 25 242 5.0 5.0 0.00 0.00 0.00 86 1004.5
20180224222634 25 241 7.0 12.0 0.00 0.00 0.00 86 1004.6
20180224222134 25 234 7.0 10.0 0.00 0.00 0.00 87 1004.6
20180224221638 25 234 6.0 9.0 0.00 0.00 0.00 87 1004.5
20180224221138 25 230 3.0 6.0 0.00 0.00 0.00 88 1004.6
20180224220638 25 237 3.0 6.0 0.00 0.00 0.00 87 1004.7
20180224220138 25 226 5.0 7.0 0.00 0.00 0.00 86 1004.7
20180224215638 25 236 5.0 9.0 0.00 0.00 0.00 86 1004.7
20180224215138 25 213 5.0 7.0 0.00 0.00 0.00 88 1004.8
20180224214638 24 226 3.0 6.0 0.00 0.00 0.00 88 1004.9
20180224214137 23 247 5.0 9.0 0.00 0.00 0.00 88 1005.0
20180224213636 23 241 5.0 6.0 0.00 0.00 0.00 88 1005.1
20180224213135 23 232 5.0 8.0 0.00 0.01 0.00 89 1005.1
20180224212635 23 219 6.0 8.0 0.00 0.01 0.00 89 1005.3
20180224212135 23 226 5.0 7.0 0.00 0.01 0.00 89 1005.3
20180224211634 23 243 6.0 12.0 0.00 0.01 0.00 90 1005.4
20180224211138 23 220 3.0 6.0 0.00 0.01 0.00 90 1005.4
20180224210637 23 226 5.0 6.0 0.00 0.01 0.00 90 1005.4
20180224210137 23 211 5.0 9.0 0.00 0.01 0.00 90 1005.5
20180224205637 23 219 5.0 9.0 0.00 0.01 0.00 90 1005.6
20180224205137 23 217 6.0 10.0 0.00 0.02 0.00 90 1005.6
20180224204637 23 225 5.0 7.0 0.00 0.02 0.00 90 1005.7
20180224204136 23 235 2.0 5.0 0.00 0.03 0.00 91 1005.7
20180224203636 22 232 3.0 3.0 0.00 0.03 0.00 91 1005.9
20180224203136 22 217 5.0 8.0 0.00 0.04 0.00 92 1006.2
20180224202636 22 203 5.0 9.0 0.00 0.04 0.00 92 1006.2
20180224202135 22 200 6.0 8.0 0.00 0.04 0.00 92 1006.3
20180224201635 22 202 3.0 5.0 0.00 0.05 0.00 93 1006.4
20180224201135 22 197 3.0 7.0 0.00 0.06 0.00 93 1006.4
20180224200635 22 173 3.0 8.0 0.00 0.07 0.00 94 1006.5
20180224200135 22 219 3.0 5.0 0.00 0.07 0.00 94 1006.6
20180224195635 22 177 3.0 5.0 0.00 0.07 0.00 94 1006.7
20180224195135 22 209 3.0 6.0 0.00 0.07 0.00 94 1006.8